TimeCDT,TemperatureF,Dew PointF,Humidity,Sea Level PressureIn,VisibilityMPH,Wind Direction,Wind SpeedMPH,Gust SpeedMPH,PrecipitationIn,Events,Conditions,WindDirDegrees,DateUTC
12:53 AM,71.1,63.0,75,30.10,10.0,South,5.8,-,N/A,,Clear,180,2011-10-25 05:53:00
2:53 AM,69.1,64.0,84,30.09,10.0,Calm,Calm,-,N/A,,Clear,0,2011-10-25 07:53:00
3:53 AM,68.0,63.0,84,30.09,10.0,South,3.5,-,N/A,,Clear,170,2011-10-25 08:53:00
4:53 AM,66.9,62.1,84,30.08,10.0,Calm,Calm,-,N/A,,Clear,0,2011-10-25 09:53:00
5:53 AM,64.9,61.0,87,30.09,10.0,Calm,Calm,-,N/A,,Clear,0,2011-10-25 10:53:00
7:18 AM,62.6,59.0,88,30.11,1.8,Calm,Calm,-,N/A,,Clear,0,2011-10-25 12:18:00
7:36 AM,62.6,60.8,94,30.12,3.0,Calm,Calm,-,N/A,,Clear,0,2011-10-25 12:36:00
7:53 AM,62.1,59.0,90,30.10,9.0,Calm,Calm,-,N/A,,Clear,0,2011-10-25 12:53:00
8:53 AM,68.0,64.0,87,30.11,7.0,Calm,Calm,-,N/A,,Clear,0,2011-10-25 13:53:00
9:53 AM,72.0,64.0,76,30.12,10.0,SSE,4.6,-,N/A,,Clear,160,2011-10-25 14:53:00
10:53 AM,77.0,64.0,64,30.12,10.0,South,11.5,18.4,N/A,,Clear,180,2011-10-25 15:53:00
11:53 AM,81.0,61.0,50,30.10,10.0,South,9.2,-,N/A,,Clear,170,2011-10-25 16:53:00
12:53 PM,84.0,60.1,44,30.07,10.0,South,10.4,-,N/A,,Clear,180,2011-10-25 17:53:00
3:53 PM,87.1,55.9,35,29.98,10.0,South,12.7,17.3,N/A,,Clear,170,2011-10-25 20:53:00
4:53 PM,87.1,54.0,32,29.96,10.0,South,12.7,-,N/A,,Clear,170,2011-10-25 21:53:00
5:53 PM,86.0,53.1,32,29.95,10.0,SSE,10.4,-,N/A,,Clear,160,2011-10-25 22:53:00
6:53 PM,81.0,55.0,41,29.94,10.0,SE,5.8,-,N/A,,Clear,140,2011-10-25 23:53:00
8:53 PM,75.0,55.9,51,29.97,10.0,SSE,6.9,-,N/A,,Clear,150,2011-10-26 01:53:00
9:53 PM,75.0,57.9,55,29.98,10.0,SSE,6.9,-,N/A,,Clear,150,2011-10-26 02:53:00
10:53 PM,73.0,60.1,64,29.98,10.0,SE,8.1,-,N/A,,Clear,140,2011-10-26 03:53:00
11:53 PM,71.1,62.1,73,29.97,10.0,SE,6.9,-,N/A,,Clear,140,2011-10-26 04:53:00